Change the Weather History Date:

Tuesday, October 1, 2013

  Actual Average Record
Temperature  
Mean Temperature 79 °F -  
Max Temperature 83 °F 85 °F 91 °F (2014)
Min Temperature 75 °F 76 °F 73 °F (2012)
Cooling Degree Days 14    
Growing Degree Days 29 (Base 50)    
Moisture  
Dew Point 74 °F    
Average Humidity 83    
Maximum Humidity 89    
Minimum Humidity 72    
Precipitation  
Precipitation 0.00 in - - ()
Sea Level Pressure  
Sea Level Pressure 29.92 in    
Wind  
Wind Speed 3 mph ()    
Max Wind Speed 8 mph    
Max Gust Speed -    
Visibility 7.0 miles    
Events Rain , Thunderstorm    
Averages and records for this station are not official NWS values.
T = Trace of Precipitation, MM = Missing Value Source: Averaged Metar Reports

Daily Weather History Graph

Daily Weather History Graph

Search for Another Location

Airport or City:

Trip Planner

Search our weather history database for the weather conditions in past years. The results will help you decide how hot, cold, wet, or windy it might be!

Date:

Astronomy

Oct. 01, 2013 Rise Set
Actual Time 6:02 AM EST 5:59 PM EST
Civil Twilight 5:40 AM EST 6:21 PM EST
Nautical Twilight 5:15 AM EST 6:47 PM EST
Astronomical Twilight 4:49 AM EST 7:12 PM EST
Moon 2:59 AM EST (10/1) 3:42 PM EST (10/1)
Length of Visible Light 12h 41m
Length of Day
11h 57m
Waning Crescent, 12% of the Moon is Illuminated
Oct 1
Waning Crescent
Oct 4
New
Oct 11
First Quarter
Oct 18
Full
Oct 26
Last Quarter

Hourly Weather History & Observations

Time (EST) Temp. Heat Index Dew Point Humidity Pressure Visibility Wind Dir Wind Speed Gust Speed Precip Events Conditions
12:00 AM 78.8 °F - 71.6 °F 78% 29.92 in 6.2 mi SE 4.6 mph - N/A   Mostly Cloudy
1:00 AM 77.0 °F - 71.6 °F 83% 29.92 in 6.2 mi SSE 2.3 mph - N/A   Mostly Cloudy
2:00 AM 77.0 °F - 71.6 °F 83% 29.89 in 6.2 mi Variable 2.3 mph - N/A   Mostly Cloudy
3:00 AM 77.0 °F - 69.8 °F 78% 29.89 in 6.2 mi Variable 2.3 mph - N/A   Mostly Cloudy
4:00 AM 78 °F - 71 °F 72% 29.89 in 12 mi SE 2.3 mph - -   Mostly Cloudy
4:00 AM 77.0 °F - 71.6 °F 83% 29.89 in 6.2 mi Variable 2.3 mph - N/A   Mostly Cloudy
5:00 AM 77.0 °F - 71.6 °F 83% 29.89 in 6.2 mi Variable 1.2 mph - N/A   Scattered Clouds
6:00 AM 75.2 °F - 71.6 °F 89% 29.89 in 6.2 mi SSW 3.5 mph - N/A   Scattered Clouds
7:00 AM 79 °F - 72 °F 75% 29.93 in 16 mi South 1.2 mph - -   Partly Cloudy
7:00 AM 78.8 °F - 73.4 °F 83% 29.92 in 6.2 mi Variable 1.2 mph - N/A   Scattered Clouds
8:00 AM 78.8 °F - 73.4 °F 83% 29.95 in 6.2 mi Variable 2.3 mph - N/A   Scattered Clouds
9:00 AM 80.6 °F 85.4 °F 73.4 °F 79% 29.98 in 6.2 mi SSW 4.6 mph - N/A Rain Light Rain
10:00 AM 80.6 °F 86.2 °F 75.2 °F 84% 30.01 in 6.2 mi ESE 2.3 mph - N/A   Scattered Clouds
11:00 AM 77.0 °F - 73.4 °F 89% 30.01 in 3.1 mi South 8.1 mph - N/A Rain , Thunderstorm Light Thunderstorms and Rain
11:38 AM 77.0 °F - 71.6 °F 83% 29.98 in 3.7 mi SSW 5.8 mph - N/A Rain Light Rain
12:00 PM 77.0 °F - 73.4 °F 89% 29.98 in 3.7 mi SE 4.6 mph - N/A Rain Light Rain
1:00 PM 77.0 °F - 73.4 °F 89% 29.92 in 6.2 mi South 8.1 mph - N/A Rain Light Rain
2:00 PM 78.8 °F - 75.2 °F 89% 29.89 in 6.2 mi South 3.5 mph - N/A Rain Light Rain
3:00 PM 80.6 °F 87.1 °F 77.0 °F 89% 29.89 in 6.2 mi East 6.9 mph - N/A Rain Light Rain
4:00 PM 82 °F - 76 °F 77% 29.90 in 12 mi NNE 2.3 mph - -   Partly Cloudy
4:00 PM 82.4 °F 89.5 °F 75.2 °F 79% 29.89 in 6.2 mi NNE 2.3 mph - N/A   Scattered Clouds
5:00 PM 82.4 °F 89.5 °F 75.2 °F 79% 29.89 in 6.2 mi Variable 2.3 mph - N/A   Mostly Cloudy
6:00 PM 80.6 °F 86.2 °F 75.2 °F 84% 29.89 in 6.2 mi ESE 3.5 mph - N/A   Scattered Clouds
7:00 PM 78 °F - 74 °F 85% 29.90 in 12 mi East 4.6 mph - -   Haze
7:00 PM 78.8 °F - 75.2 °F 89% 29.89 in 6.2 mi East 4.6 mph - N/A   Partly Cloudy
8:00 PM 80.6 °F 85.4 °F 73.4 °F 79% 29.92 in 6.2 mi ESE 5.8 mph - N/A   Partly Cloudy
9:00 PM 78.8 °F - 75.2 °F 89% 29.92 in 6.2 mi South 4.6 mph - N/A   Partly Cloudy
10:00 PM 80 °F - 74 °F 78% 29.95 in 12 mi SSE 4.6 mph - -   Mostly Cloudy
10:00 PM 80.6 °F 86.2 °F 75.2 °F 84% 29.95 in 6.2 mi SSE 4.6 mph - N/A   Mostly Cloudy
11:00 PM 78.8 °F - 75.2 °F 89% 29.95 in 6.2 mi SE 3.5 mph - N/A Thunderstorm Mostly Cloudy